EST,Max TemperatureF,Mean TemperatureF,Min TemperatureF,Max Dew PointF,MeanDew PointF,Min DewpointF,Max Humidity, Mean Humidity, Min Humidity, Max Sea Level PressureIn, Mean Sea Level PressureIn, Min Sea Level PressureIn, Max VisibilityMiles, Mean VisibilityMiles, Min VisibilityMiles, Max Wind SpeedMPH, Mean Wind SpeedMPH, Max Gust SpeedMPH,PrecipitationIn, CloudCover, Events, WindDirDegrees
2014-2-1,41,32,23,26,22,17,88,66,44,30.19,30.04,29.88,10,8,2,15,6,22,0.02,8,Rain-Snow,161
2014-2-2,41,32,23,36,27,17,92,71,50,30.17,29.97,29.84,10,6,1,16,7,18,0.10,8,Rain-Snow,294
2014-2-3,23,20,16,18,15,9,91,81,71,30.35,30.18,30.05,10,6,2,12,5,15,T,8,Snow,357
2014-2-4,28,16,4,12,8,-1,86,66,46,30.44,30.32,30.07,10,10,4,15,4,20,T,4,Snow,96
2014-2-5,24,19,14,19,15,9,91,82,73,30.15,29.82,29.54,8,2,0,18,11,30,0.38,8,Fog-Snow,29
2014-2-6,18,10,3,8,3,-3,87,72,56,30.32,30.21,30.12,10,8,2,9,7,,T,7,Snow,270
2014-2-7,16,10,3,8,-1,-8,79,61,42,30.32,30.22,30.09,10,8,1,17,8,25,T,3,Snow,255
2014-2-8,16,4,-8,7,-2,-13,87,60,33,30.32,30.22,30.06,10,8,2,9,2,12,T,4,Snow,245
2014-2-9,20,10,-1,14,8,-7,80,75,70,30.17,29.96,29.80,10,3,0,17,5,25,0.09,8,Snow,249
2014-2-10,17,7,-4,7,2,-9,83,68,53,30.30,30.11,29.99,10,4,0,17,7,25,T,7,Snow,290
2014-2-11,10,1,-9,2,-4,-14,82,73,63,30.50,30.35,30.17,10,7,2,13,4,17,T,6,Snow,308
2014-2-12,22,2,-18,1,-9,-24,79,59,39,30.49,30.35,30.16,10,9,2,15,7,21,T,0,,143
2014-2-13,26,19,11,20,15,1,88,73,58,30.13,29.69,29.42,10,5,1,15,7,19,0.01,7,Snow,22
2014-2-14,25,19,12,20,16,10,92,80,68,29.72,29.52,29.37,10,4,1,14,5,23,0.01,7,Snow,267
2014-2-15,23,15,7,18,12,1,84,73,61,30.00,29.76,29.62,10,4,1,18,9,26,0.02,8,Snow,319
2014-2-16,17,11,5,10,5,1,87,77,67,30.27,30.00,29.86,10,4,1,17,7,23,0.01,8,Snow,301
2014-2-17,25,7,-12,4,-3,-16,87,58,29,30.44,30.23,29.82,10,8,2,28,9,38,T,3,Snow,137
2014-2-18,32,25,18,23,17,9,92,69,45,30.04,29.84,29.69,10,3,0,25,10,38,0.14,7,Fog-Snow,214
2014-2-19,42,36,29,36,29,15,92,66,40,30.11,29.79,29.60,10,7,1,22,10,32,0.02,7,Rain-Snow,239
2014-2-20,42,33,23,32,26,19,92,67,41,30.16,30.02,29.77,10,4,0,18,7,28,0.40,6,Fog-Rain,147
2014-2-21,46,40,33,43,30,11,92,67,41,29.86,29.68,29.57,10,7,1,24,12,37,0.28,7,Rain-Snow,216
2014-2-22,43,37,30,30,20,11,89,60,30,30.00,29.93,29.85,10,7,1,25,11,36,0.03,5,Snow,252
2014-2-23,36,29,21,29,24,4,92,62,32,30.00,29.95,29.91,10,6,1,17,9,24,0.08,6,Snow,254
2014-2-24,21,19,16,11,8,4,80,66,51,30.09,29.95,29.87,10,3,0,24,12,35,T,8,Snow,278
2014-2-25,19,15,11,11,6,2,83,64,45,30.05,29.95,29.79,10,5,1,18,9,27,T,8,Snow,279
2014-2-26,15,6,-3,9,-2,-13,76,55,34,29.99,29.84,29.74,10,5,0,21,9,30,T,6,Snow,285
2014-2-27,14,4,-6,5,-4,-15,80,66,51,30.13,29.65,29.43,10,4,0,31,12,46,T,7,Snow,272
2014-2-28,16,-1,-19,-10,-16,-25,77,51,24,30.36,30.28,30.15,10,10,4,12,2,17,0.00,0,,133